Regional Weather Roundup
Issued by NWS Cleveland, OH

Home | Current Version | Previous Version | Graphics & Text | Print | Product List | Glossary On
Versions: 1 2 3 4 5 6 7 8 9 10 11 12 13 14 15 16 17 18 19 20 21 22 23 24 25 26 27 28 29 30 31 32 33 34 35 36 37 38 39 40 41 42 43 44 45 46 47 48 49 50
000
ASUS41 KCLE 241802
RWRCLE
OHIO REGIONAL WEATHER ROUNDUP
NATIONAL WEATHER SERVICE CLEVELAND, OH
100 PM EST FRI NOV 24 2017

NOTE: "FAIR" INDICATES FEW OR NO CLOUDS BELOW 12,000 FEET WITH NO
SIGNIFICANT WEATHER AND/OR OBSTRUCTIONS TO VISIBILITY.

OHZ001>008-015>018-024>027-034-035-043-044-241900-
   NORTHWEST OHIO

CITY           SKY/WX    TMP DP  RH WIND       PRES   REMARKS
DEFIANCE       SUNNY     50  31  48 SW13      29.77F
FINDLAY        SUNNY     52  28  39 S20       29.79F
TOLEDO EXPRESS SUNNY     52  32  46 S12G21    29.76F
TOLEDO EXEC    SUNNY     51  29  42 SW20G28   29.78F
LIMA           SUNNY     51  30  44 S17G26    29.80F
$$

OHZ009>014-019>023-028>033-038-089-241900-
   NORTHEAST OHIO

CITY           SKY/WX    TMP DP  RH WIND       PRES   REMARKS
CLE-HOPKINS    MOSUNNY   51  26  37 SW15G24   29.84F
CLE-LAKEFRONT  SUNNY     52  24  33 S15G24    29.81F
CUY CO. ARPT   MOSUNNY   52  27  37 S16G22    29.83F
LORAIN-ELYRIA  SUNNY     50  24  36 SW18      29.82F
ASHTABULA      SUNNY     48  25  40 S15G23    29.84F
AKRON-CANTON   SUNNY     49  23  36 S16G25    29.86F
WOOSTER        SUNNY     50  24  36 S14G22    29.85F
MANSFIELD      SUNNY     50  25  37 S21G29    29.83F
YOUNGSTOWN     MOSUNNY   49  25  39 S14       29.86F
$$

OHZ042-051>053-060>062-070>072-077>081-241900-
  SOUTHWEST OHIO

CITY           SKY/WX    TMP DP  RH WIND       PRES   REMARKS
CINC-COVINGTON MOSUNNY   53  25  33 S13       29.89F
CINC-LUNKEN    SUNNY     55  26  32 SW14      29.90F
HAMILTON       SUNNY     55  25  31 S10       29.89F
DAYTON         MOSUNNY   50  26  39 S15       29.86F
WRIGHT-PAT AFB MOSUNNY   53  22  30 S10       29.86F
DAYTON GENERAL SUNNY     51  23  33 SW14      29.87F
WILMINGTON     SUNNY     51  27  39 SW17      29.88F
$$

OHZ036-037-039>041-045>050-054>059-063>069-073>076-082>088-241900-
  CENTRAL AND SOUTHEAST OHIO

CITY           SKY/WX    TMP DP  RH WIND       PRES   REMARKS
COLUMBUS       MOSUNNY   50  28  42 SW10      29.89F
OSU AIRPORT    SUNNY     50  29  44 S14       29.87F
BOLTON FIELD   SUNNY     50  28  43 SW12      29.89F
RICKENBACK AFB NOT AVBL
NEWARK         SUNNY     52  22  30 S10       29.89F
MARION         SUNNY     50  28  42 SW13G26   29.85F
LANCASTER      SUNNY     52  24  33 S14       29.90F
ZANESVILLE     SUNNY     52  22  30 S9        29.90F
NEW PHILLY     NOT AVBL
$$




USA.gov is the U.S. government's official web portal to all federal, state and local government web resources and services.